Time,TemperatureF,DewpointF,PressureIn,WindDirection,WindDirectionDegrees,WindSpeedMPH,WindSpeedGustMPH,Humidity,HourlyPrecipIn,Conditions,Clouds,dailyrainin,SolarRadiationWatts/m^2,SoftwareType,DateUTC
2015-03-04 00:03:00,21.0,18.0,-100.00,SW,235,4.0,8.0,89,0.00,,,0.00,0.000000,,2015-03-04 05:03:00,
2015-03-04 00:43:00,22.0,20.0,-100.00,ENE,75,2.0,5.0,90,0.00,,,0.00,0.000000,,2015-03-04 05:43:00,
2015-03-04 00:53:00,22.0,20.0,-100.00,ENE,75,2.0,5.0,90,0.00,,,0.00,0.000000,,2015-03-04 05:53:00,
2015-03-04 01:03:00,22.0,20.0,-100.00,ENE,75,2.0,5.0,90,0.00,,,0.00,0.000000,,2015-03-04 06:03:00,
2015-03-04 01:43:00,23.0,21.0,-100.00,SE,143,2.0,5.0,91,0.00,,,0.00,0.000000,,2015-03-04 06:43:00,
2015-03-04 01:53:00,23.0,21.0,-100.00,SE,143,2.0,5.0,91,0.00,,,0.00,0.000000,,2015-03-04 06:53:00,
2015-03-04 02:02:00,23.0,21.0,-100.00,SE,143,2.0,5.0,91,0.00,,,0.00,0.000000,,2015-03-04 07:02:00,
2015-03-04 02:43:00,24.0,22.0,-100.00,ENE,69,2.0,6.0,91,0.00,,,0.00,0.000000,,2015-03-04 07:43:00,
2015-03-04 02:52:00,24.0,22.0,-100.00,ENE,69,2.0,6.0,91,0.00,,,0.00,0.000000,,2015-03-04 07:52:00,
2015-03-04 03:02:00,24.0,22.0,-100.00,ENE,69,2.0,6.0,91,0.00,,,0.00,0.000000,,2015-03-04 08:02:00,
2015-03-04 03:43:00,24.0,22.0,-100.00,South,180,2.0,7.0,90,0.00,,,0.00,0.000000,,2015-03-04 08:43:00,
2015-03-04 03:52:00,24.0,22.0,-100.00,South,180,2.0,7.0,90,0.00,,,0.00,0.000000,,2015-03-04 08:52:00,
2015-03-04 04:03:00,24.0,22.0,-100.00,South,180,2.0,7.0,90,0.00,,,0.00,0.000000,,2015-03-04 09:03:00,
2015-03-04 04:43:00,26.0,24.0,-100.00,ESE,105,2.0,8.0,91,0.00,,,0.00,0.000000,,2015-03-04 09:43:00,
2015-03-04 04:54:00,26.0,24.0,-100.00,ESE,105,2.0,8.0,91,0.00,,,0.00,0.000000,,2015-03-04 09:54:00,
2015-03-04 05:04:00,26.0,24.0,-100.00,ESE,105,2.0,8.0,91,0.00,,,0.00,0.000000,,2015-03-04 10:04:00,
2015-03-04 05:43:00,28.0,25.0,-100.00,SW,225,4.0,12.0,88,0.00,,,0.00,0.000000,,2015-03-04 10:43:00,
2015-03-04 05:53:00,28.0,25.0,-100.00,SW,225,4.0,12.0,88,0.00,,,0.00,0.000000,,2015-03-04 10:53:00,
2015-03-04 06:03:00,28.0,25.0,-100.00,SW,225,4.0,12.0,88,0.00,,,0.00,0.000000,,2015-03-04 11:03:00,
2015-03-04 06:43:00,28.0,26.0,-100.00,SW,234,3.0,7.0,92,0.00,,,0.00,0.000000,,2015-03-04 11:43:00,
2015-03-04 06:53:00,28.0,26.0,-100.00,SW,234,3.0,7.0,92,0.00,,,0.00,0.000000,,2015-03-04 11:53:00,
2015-03-04 07:02:00,28.0,26.0,-100.00,SW,234,3.0,7.0,92,0.00,,,0.00,0.000000,,2015-03-04 12:02:00,
2015-03-04 07:43:00,28.0,26.0,-100.00,NE,56,1.0,7.0,91,0.00,,,0.00,2.000000,,2015-03-04 12:43:00,
2015-03-04 07:53:00,28.0,26.0,-100.00,NE,56,1.0,7.0,91,0.00,,,0.00,2.000000,,2015-03-04 12:53:00,
2015-03-04 08:03:00,28.0,26.0,-100.00,NE,56,1.0,7.0,91,0.00,,,0.00,2.000000,,2015-03-04 13:03:00,
2015-03-04 08:43:00,30.0,27.0,-100.00,North,-9999,0.0,4.0,89,0.00,,,0.00,11.000000,,2015-03-04 13:43:00,
2015-03-04 08:52:00,30.0,27.0,-100.00,North,-9999,0.0,4.0,89,0.00,,,0.00,11.000000,,2015-03-04 13:52:00,
2015-03-04 09:02:00,30.0,27.0,-100.00,North,-9999,0.0,4.0,89,0.00,,,0.00,11.000000,,2015-03-04 14:02:00,
2015-03-04 09:42:00,33.0,29.0,-100.00,NE,38,1.0,3.0,85,0.00,,,0.00,20.000000,,2015-03-04 14:42:00,
2015-03-04 09:52:00,33.0,29.0,-100.00,NE,38,1.0,3.0,85,0.00,,,0.00,20.000000,,2015-03-04 14:52:00,
2015-03-04 10:02:00,33.0,29.0,-100.00,NE,38,1.0,3.0,85,0.00,,,0.00,20.000000,,2015-03-04 15:02:00,
2015-03-04 10:44:00,38.0,32.0,-100.00,NE,54,2.0,4.0,78,0.00,,,0.00,36.000000,,2015-03-04 15:44:00,
2015-03-04 10:53:00,38.0,32.0,-100.00,NE,54,2.0,4.0,78,0.00,,,0.00,36.000000,,2015-03-04 15:53:00,
2015-03-04 11:03:00,38.0,32.0,-100.00,NE,54,2.0,4.0,78,0.00,,,0.00,36.000000,,2015-03-04 16:03:00,
2015-03-04 11:44:00,43.0,25.0,-100.00,SW,228,7.0,15.0,48,0.13,,,0.13,175.000000,,2015-03-04 16:44:00,
2015-03-04 11:54:00,43.0,25.0,-100.00,SW,228,7.0,15.0,48,0.13,,,0.13,175.000000,,2015-03-04 16:54:00,
2015-03-04 12:03:00,43.0,25.0,-100.00,SW,228,7.0,15.0,48,0.13,,,0.13,175.000000,,2015-03-04 17:03:00,